Airfield :
LOGIN :

Register | Disclaimer

   EN    FR    IT 

 










Legend :    VFR   Marginal VFR   IFR   Intensive IFR   Very Intensive IFR
Visi :
Ceiling :
>= 8 km
>= 3000ft
5 to 8 km
1000 to 3000 ft
1500m to 5 km
500 to 1000 ft
800 to 1500m
200 to 500 ft
< 800m
< 200 ft
Symbols :   Thunderstorms  Fog  Heavy snow  Heavy precipitations  Wind > 20 kt
SIGMETs :     Misc.  Thunderstorms  Icing  Turbulence  Mountain Waves  Volcanic Ashes







- Airport Elevation : 102 ft
- IATA code : CNG
- Download approach charts


LFBG - Cognac

CURRENT METAR :
  • 231400Z AUTO 25013KT 9999 OVC008 21/19 Q1021

EXPIRED METARs :
  • 231330Z AUTO 24013KT 9999 OVC010 22/19 Q1021
  • 231300Z AUTO 24012KT 9999 BKN010 OVC014 22/19 Q1022
  • 231230Z AUTO 25014KT 9999 OVC011 21/19 Q1022
  • 231200Z AUTO 26015KT 9999 OVC014 22/19 Q1022
  • 231130Z AUTO 25015KT 9999 OVC016 22/18 Q1022

Expired Forecast.
No reported NOTAMs for that airfield.



MET'MAP, your aeronautical weather chart ! - Copyright ORBIFLY December 2007 - Disclaimer

ORBIFLY MET'MAP TEAM :

Programming & Development : Alexandra Zaïnal
Concept & Development : Baudouin d'Aumeries
Co-Development & Prog : Marc-Olivier Méhu
Technical & hardware support : Manuel Goepfert

Contact : metmap@orbifly.com




SOURCES & CREDITS :

   NOAA